DateTimeUTC,F1_A11,F1_S11,BsB_S11,BsG_S11,BsR_S11,BbsB_S11,BbsG_S11,BbsR_S11,BaB_A11,BaG_A11,BaR_A11,Tu_S11,T_S11,Uu_S11,U_S11,P_S11,T1_A11
2021-10-08T12:00:00Z,00000200,21000000,,,,,,,0000.59,0000.37,0000.34,16.2,23.3,00.3,00.2,0668.1,30.9
2021-10-08T12:01:00Z,00000200,21000000,,,,,,,0000.93,0000.65,0000.46,16.2,23.3,00.3,00.2,0668.1,30.9
2021-10-08T12:02:00Z,00000200,21000000,,,,,,,0000.25,0000.70,0000.52,16.2,23.3,00.3,00.2,0668.1,30.9
2021-10-08T12:03:00Z,00000200,61000000,,,,,,,0000.63,0000.24,0000.17,16.2,23.4,00.3,00.2,0668.1,30.9
2021-10-08T12:04:00Z,00000200,41000000,0000.06,0000.09,-000.07,0000.11,-000.10,-000.08,0000.29,0000.44,0000.05,16.5,23.2,01.3,00.9,0668.9,30.8
2021-10-08T12:05:00Z,00000200,01000000,0000.10,0000.17,-000.32,0000.16,0000.12,0000.01,0000.06,0000.24,0000.38,16.5,23.1,01.5,01.0,0668.9,30.8
2021-10-08T12:06:00Z,00000200,01000000,-000.18,0000.43,-000.21,0000.04,0000.19,-000.12,0000.77,0000.30,0000.29,16.5,23.1,01.8,01.2,0668.9,30.8
2021-10-08T12:07:00Z,00000200,00000000,0001.07,-000.05,-000.19,0000.23,0000.13,-000.16,0000.05,0000.31,0000.13,16.5,23.1,02.1,01.4,0668.9,30.8
2021-10-08T12:08:00Z,00000200,00000000,0000.12,0000.10,-000.10,0000.40,-000.25,-000.19,0000.43,0000.59,0000.26,16.4,23.1,02.2,01.5,0668.9,30.8
2021-10-08T12:09:00Z,00000200,00000000,0000.13,0000.12,-000.19,0001.14,-000.26,-000.19,0000.56,0000.17,0000.17,16.4,23.0,02.3,01.5,0668.9,30.8
2021-10-08T12:10:00Z,00000200,00000000,-000.69,0000.29,-000.10,0000.50,0000.13,-000.07,-000.23,-000.13,0000.15,16.3,23.0,02.3,01.5,0668.9,30.8
2021-10-08T12:11:00Z,00000200,00000000,0000.71,0000.47,0000.09,-000.14,0000.44,0000.12,0000.32,0000.24,0000.03,16.3,23.0,02.5,01.6,0668.8,30.8
2021-10-08T12:12:00Z,00000200,00000000,-000.15,0000.07,-000.11,0000.66,-000.19,0000.04,-000.14,-000.19,-000.05,16.2,22.9,02.5,01.6,0668.8,30.8
2021-10-08T12:13:00Z,00000200,00000000,-000.24,0000.09,-000.19,-000.16,0000.06,-000.14,0000.46,0000.44,0000.34,16.2,22.9,02.5,01.7,0668.8,30.8
2021-10-08T12:14:00Z,00000200,00000000,0000.07,-000.03,-000.07,-000.05,-000.15,-000.32,-000.10,-000.01,0000.13,16.2,22.8,02.4,01.6,0668.9,30.8
2021-10-08T12:15:00Z,00000200,00000000,0000.15,-000.15,0000.03,0000.41,0000.04,0000.00,0000.32,0000.58,0000.38,16.3,22.9,02.4,01.6,0668.9,30.8
2021-10-08T12:16:00Z,00000200,00000000,0000.10,0000.15,0000.12,0000.38,0000.02,0000.31,0000.13,-000.09,-000.12,16.4,22.9,02.5,01.6,0668.9,30.8
2021-10-08T12:17:00Z,00000200,00000000,0000.12,0000.17,-000.13,0000.09,0000.30,0000.11,0000.18,0000.56,0000.25,16.5,22.9,02.5,01.7,0668.9,30.8
2021-10-08T12:18:00Z,00000200,00000000,0000.46,-000.14,-000.10,0000.60,0000.17,0000.04,0000.27,0000.05,0000.06,16.7,23.0,02.4,01.6,0668.9,30.9
2021-10-08T12:19:00Z,00000200,00000000,-000.48,0000.12,-000.14,0000.61,-000.03,0000.24,0000.12,0000.05,-000.12,16.8,23.0,02.5,01.7,0668.9,30.9
2021-10-08T12:20:00Z,00000200,00000000,-000.57,0000.20,-000.01,0000.28,0000.23,-000.19,-000.23,-000.19,-000.08,16.8,23.1,02.5,01.7,0668.9,30.9
2021-10-08T12:21:00Z,00000200,00000000,0000.27,0000.31,0000.09,0000.04,-000.19,-000.24,0000.33,0000.16,0000.27,16.9,23.1,02.5,01.7,0668.9,30.9
2021-10-08T12:22:00Z,00000200,00000000,-000.19,0000.39,-000.16,0000.03,0000.32,-000.15,0000.09,-000.27,-000.35,16.9,23.1,02.6,01.8,0668.9,30.9
2021-10-08T12:23:00Z,00000200,00000000,0000.35,-000.04,-000.13,0000.57,0000.31,-000.27,-000.18,-000.19,0000.27,16.8,23.1,02.6,01.7,0668.9,30.9
2021-10-08T12:24:00Z,00000200,00000000,-000.35,0000.03,-000.15,0000.26,-000.18,-000.06,-000.27,-000.55,-000.58,16.8,23.1,02.5,01.7,0668.9,30.8
2021-10-08T12:25:00Z,00000200,00000000,0000.77,0000.04,0000.02,0000.05,-000.18,-000.11,-000.85,-000.26,-000.31,16.7,23.1,02.5,01.7,0668.9,30.8
2021-10-08T12:26:00Z,00000200,00000000,0000.63,-000.12,-000.05,0000.51,-000.14,-000.23,-000.64,-000.77,-000.47,16.6,23.0,02.1,01.4,0668.9,30.8
2021-10-08T12:27:00Z,00000200,00000000,0000.07,0000.18,-000.02,-000.23,-000.02,-000.28,-000.09,-000.14,-000.49,16.6,23.0,01.9,01.3,0668.8,30.8
2021-10-08T12:28:00Z,00000200,01000000,0000.15,-000.12,-000.37,-000.15,0000.03,-000.03,0000.16,0000.01,0000.54,16.6,23.0,01.9,01.3,0668.8,30.8
2021-10-08T12:29:00Z,00000200,01000000,0000.21,-000.05,-000.07,0000.11,0000.26,0000.21,0000.64,0000.67,0000.55,16.6,23.0,01.9,01.3,0668.8,30.8
2021-10-08T12:30:00Z,00000200,00000000,0000.42,0000.07,0000.07,0000.37,0000.01,-000.06,0000.17,0000.59,0000.13,16.7,23.0,02.1,01.4,0668.9,30.8
2021-10-08T12:31:00Z,00000200,01000000,0000.14,0000.04,-000.06,-000.21,0000.16,-000.01,0000.10,-000.07,0000.08,16.7,23.0,02.1,01.4,0668.9,30.8
2021-10-08T12:32:00Z,00000200,00000000,0000.03,0000.37,0000.13,0000.40,0000.02,0000.03,0000.00,0000.28,-000.04,16.8,23.1,02.0,01.4,0668.9,30.8
2021-10-08T12:33:00Z,00000200,00000000,0000.76,0000.35,-000.22,0000.62,-000.14,-000.45,0000.15,0000.18,0000.26,16.9,23.1,02.0,01.3,0668.9,30.9
2021-10-08T12:34:00Z,00000200,00000000,-000.49,0000.09,-000.09,0000.26,0000.32,-000.00,0000.28,0000.08,0000.14,17.0,23.2,02.1,01.4,0669.0,30.9
2021-10-08T12:35:00Z,00000200,00000000,0000.09,0000.02,0000.16,-000.29,-000.06,0000.41,0000.34,0000.33,0000.40,17.1,23.2,02.3,01.6,0668.9,30.9
2021-10-08T12:36:00Z,00000200,01000000,0000.47,0000.31,-000.01,0000.10,0000.21,0000.03,-000.10,-000.30,-000.52,17.1,23.2,02.3,01.6,0668.9,30.9
2021-10-08T12:37:00Z,00000200,00000000,-000.16,0000.14,-000.17,0000.72,-000.07,-000.11,-000.58,-000.73,-000.24,17.0,23.2,02.2,01.5,0668.9,30.9
2021-10-08T12:38:00Z,00000200,00000000,-000.25,0000.21,-000.02,0000.00,0000.26,0000.21,-000.10,0000.23,-000.04,17.0,23.2,02.1,01.4,0668.9,30.9
2021-10-08T12:39:00Z,00000200,01000000,0000.43,-000.02,-000.07,0000.49,0000.22,-000.29,0000.07,0000.40,0000.23,16.9,23.1,02.3,01.5,0668.9,30.9
2021-10-08T12:40:00Z,00000200,00000000,0000.55,0000.29,0000.04,0000.01,0000.13,0000.03,0000.48,-000.12,0000.06,16.8,23.1,02.5,01.7,0668.9,30.8
2021-10-08T12:41:00Z,00000200,00000000,0000.85,0000.17,-000.28,0000.13,-000.03,-000.19,-000.50,-000.15,-000.08,16.8,23.1,02.5,01.7,0668.9,30.8
2021-10-08T12:42:00Z,00000200,00000000,0000.42,0000.14,-000.21,0000.12,-000.13,0000.14,-000.29,-000.72,-000.54,16.7,23.0,02.3,01.6,0668.9,30.8
2021-10-08T12:43:00Z,00000200,00000000,0000.23,-000.07,0000.13,-000.35,-000.18,-000.13,0000.09,0000.02,0000.04,16.7,23.0,02.1,01.4,0668.9,30.8
2021-10-08T12:44:00Z,00000200,01000000,0000.63,0000.46,0000.02,0000.28,0000.02,0000.02,-000.62,0000.38,0000.19,16.7,23.0,01.9,01.3,0668.9,30.8
2021-10-08T12:45:00Z,00000200,01000000,0000.75,0000.17,0000.01,0000.71,0000.51,0000.13,0000.15,-000.18,0000.04,16.7,23.0,01.8,01.2,0668.9,30.8
2021-10-08T12:46:00Z,00000200,01000000,-000.07,-000.02,-000.04,0000.29,0000.23,0000.02,0000.50,-000.08,-000.05,16.8,23.0,01.7,01.1,0669.0,30.8
2021-10-08T12:47:00Z,00000200,01000000,0000.39,0000.43,-000.19,-000.96,-000.03,-000.10,-000.06,0000.11,0000.24,16.9,23.1,01.7,01.2,0669.0,30.8
2021-10-08T12:48:00Z,00000200,01000000,-001.05,0000.47,0000.32,0000.60,0000.00,-000.05,-000.09,-000.13,-000.14,17.0,23.1,01.7,01.2,0669.0,30.9
2021-10-08T12:49:00Z,00000200,01000000,0000.60,-000.05,0000.05,-000.11,0000.14,0000.04,-000.36,-000.15,-000.13,17.1,23.2,01.6,01.1,0669.0,30.9
2021-10-08T12:50:00Z,00000200,01000000,-000.12,-000.04,-000.26,0000.45,-000.04,-000.08,-000.52,-000.26,-000.19,17.1,23.2,01.6,01.1,0669.0,30.9
2021-10-08T12:51:00Z,00000200,01000000,-000.28,0000.06,0000.17,0000.65,-000.12,-000.38,-000.03,-000.32,-000.50,17.1,23.2,01.6,01.1,0669.0,30.9
2021-10-08T12:52:00Z,00000200,01000000,0000.20,0000.16,-000.35,0000.28,0000.21,0000.12,0000.26,0000.06,0000.07,17.1,23.2,01.4,01.0,0669.0,30.9
2021-10-08T12:53:00Z,00000200,01000000,-000.14,0000.41,-000.28,0000.58,0000.06,0000.07,-000.31,-000.07,-000.02,17.0,23.2,01.5,01.0,0669.0,30.8
2021-10-08T12:54:00Z,00000200,01000000,0000.74,0000.10,-000.20,-000.45,0000.11,0000.28,-000.18,-000.06,-000.19,17.0,23.2,01.6,01.1,0669.0,30.8
2021-10-08T12:55:00Z,00000200,01000000,0000.28,0000.11,0000.17,0000.57,0000.06,0000.20,-000.08,-000.50,-000.38,16.9,23.2,01.5,01.0,0669.0,30.8
2021-10-08T12:56:00Z,00000200,01000000,0000.32,0000.17,-000.17,-000.05,-000.02,-000.07,-000.23,0000.35,0000.30,16.8,23.1,01.5,01.0,0669.0,30.8
2021-10-08T12:57:00Z,00000200,40000000,,,,,,,0000.09,-000.06,0000.17,16.8,23.1,01.5,01.0,0669.1,30.8
2021-10-08T12:58:00Z,00000200,61000000,,,,,,,0000.28,-000.02,0000.23,16.4,23.2,01.5,01.0,0668.0,30.8
2021-10-08T12:59:00Z,00000200,20000000,,,,,,,0000.15,0000.34,-000.13,16.4,23.3,01.5,01.0,0668.0,30.8
